This is the latest recevied weather packets stored in our database for station/object K3SV. If no packets are shown the sender has not sent any weather packets the latest 10 day(s).
| Time | Temp. | Humidity | Pressure | Rain* | Wind** | Luminosity | Snow |
|---|---|---|---|---|---|---|---|
| 1777809091 | 16.67° C | 96% | 1016.7 hPa | 0 mm | - | 31 W/m² | - |
| 1777808788 | 16.67° C | 96% | 1016.9 hPa | 0 mm | - | 27 W/m² | - |
| 1777808485 | 16.67° C | 96% | 1016.9 hPa | 0 mm | - | 31 W/m² | - |
| 1777808182 | 16.67° C | 96% | 1016.7 hPa | 0 mm | - | 27 W/m² | - |
| 1777807881 | 16.67° C | 96% | 1016.9 hPa | 0 mm | - | 24 W/m² | - |
| 1777807578 | 16.67° C | 96% | 1016.6 hPa | 0 mm | - | 24 W/m² | - |
| 1777807274 | 16.67° C | 96% | 1016.4 hPa | 0 mm | - | 16 W/m² | - |
| 1777806971 | 16.67° C | 96% | 1016.4 hPa | 0 mm | - | 16 W/m² | - |
| 1777806667 | 16.67° C | 96% | 1016.4 hPa | 0 mm | - | 10 W/m² | - |
| 1777806357 | 16.67° C | 96% | 1016.4 hPa | 0 mm | - | 8 W/m² | - |
| 1777806055 | 16.67° C | 96% | 1016.7 hPa | 0 mm | - | 6 W/m² | - |
| 1777805751 | 16.67° C | 96% | 1016.4 hPa | 0 mm | - | 5 W/m² | - |
| 1777805449 | 16.67° C | 96% | 1016.2 hPa | 0 mm | - | 2 W/m² | - |
| 1777805147 | 17.22° C | 95% | 1016.5 hPa | 0 mm | - | 2 W/m² | - |
| 1777804844 | 16.67° C | 95% | 1016.2 hPa | 0 mm | - | 1 W/m² | - |
| 1777804542 | 16.67° C | 95% | 1016.2 hPa | 0 mm | - | 0 W/m² | - |
| 1777804239 | 16.67° C | 96% | 1016.4 hPa | 0 mm | - | 0 W/m² | - |
| 1777803936 | 16.67° C | 95% | 1016.1 hPa | 0 mm | - | 0 W/m² | - |
| 1777803633 | 16.67° C | 95% | 1016.2 hPa | 0 mm | - | 0 W/m² | - |
| 1777803329 | 16.67° C | 96% | 1016 hPa | 0 mm | - | 0 W/m² | - |
| 1777803027 | 17.22° C | 96% | 1016 hPa | 0 mm | - | 0 W/m² | - |
| 1777802724 | 17.22° C | 95% | 1015.9 hPa | 0 mm | - | 0 W/m² | - |
| 1777802422 | 17.22° C | 95% | 1015.9 hPa | 0 mm | - | 0 W/m² | - |
| 1777802119 | 17.22° C | 95% | 1015.9 hPa | 0 mm | - | 0 W/m² | - |
| 1777801817 | 17.22° C | 95% | 1016 hPa | 0 mm | - | 0 W/m² | - |
* Rain latest hour (hover to see other rain measurements)
** Current wind speed in m/s (hover to see current wind gust speed)